| time (UTC) | temp F | wind direction | speed knots | gust knots | rain 1hr in | rain 24hr in | rain mn in | humidity % | barometer mb |
| 20260505003640 | 70 | 327 | 2.6 | 7.0 | 0.00 | 0.00 | 0.00 | 28 | 1004.1 |
| 20260505002648 | 71 | 284 | 1.7 | 8.7 | 0.00 | 0.00 | 0.00 | 29 | 1004.3 |
| 20260505001616 | 72 | 338 | 3.5 | 8.7 | 0.00 | 0.00 | 0.00 | 27 | 1004.3 |
| 20260505000625 | 72 | 349 | 4.3 | 7.8 | 0.00 | 0.00 | 0.00 | 29 | 1004.3 |
| 20260504235619 | 73 | 46 | 5.2 | 10.4 | 0.00 | 0.00 | 0.00 | 27 | 1004.3 |
| 20260504234630 | 73 | 26 | 5.2 | 11.3 | 0.00 | 0.00 | 0.00 | 27 | 1004.3 |
| 20260504233620 | 73 | 326 | 7.0 | 12.2 | 0.00 | 0.00 | 0.00 | 28 | 1004.2 |
| 20260504232647 | 73 | 348 | 5.2 | 12.2 | 0.00 | 0.00 | 0.00 | 31 | 1004.2 |
| 20260504231617 | 72 | 314 | 5.2 | 13.0 | 0.00 | 0.00 | 0.00 | 32 | 1004.1 |
| 20260504230631 | 76 | 38 | 5.2 | 13.9 | 0.00 | 0.00 | 0.00 | 27 | 1004.2 |
| 20260504225629 | 76 | 190 | 2.6 | 7.8 | 0.00 | 0.00 | 0.00 | 26 | 1003.9 |
| 20260504224617 | 76 | 288 | 3.5 | 7.0 | 0.00 | 0.00 | 0.00 | 27 | 1004.0 |
| 20260504223623 | 76 | 237 | 4.3 | 9.6 | 0.00 | 0.00 | 0.00 | 26 | 1003.9 |
| 20260504222613 | 76 | 250 | 2.6 | 7.0 | 0.00 | 0.00 | 0.00 | 25 | 1003.8 |
| 20260504221641 | 76 | 262 | 3.5 | 6.1 | 0.00 | 0.00 | 0.00 | 25 | 1003.9 |
| 20260504220629 | 76 | 259 | 2.6 | 5.2 | 0.00 | 0.00 | 0.00 | 25 | 1004.0 |
| 20260504215629 | 77 | 337 | 3.5 | 7.0 | 0.00 | 0.00 | 0.00 | 23 | 1004.1 |
| 20260504214622 | 76 | 333 | 0.9 | 2.6 | 0.00 | 0.00 | 0.00 | 25 | 1004.4 |
| 20260504213649 | 76 | 85 | 1.7 | 6.1 | 0.00 | 0.00 | 0.00 | 24 | 1004.4 |
| 20260504212618 | 76 | 329 | 0.9 | 5.2 | 0.00 | 0.00 | 0.00 | 24 | 1004.7 |
| 20260504211648 | 76 | 355 | 3.5 | 7.8 | 0.00 | 0.00 | 0.00 | 26 | 1004.9 |
| 20260504210622 | 75 | 36 | 3.5 | 7.0 | 0.00 | 0.00 | 0.00 | 24 | 1004.9 |
| 20260504205622 | 76 | 57 | 3.5 | 7.0 | 0.00 | 0.00 | 0.00 | 26 | 1005.1 |
| 20260504204652 | 75 | 44 | 2.6 | 7.8 | 0.00 | 0.00 | 0.00 | 27 | 1005.2 |
| 20260504203621 | 76 | 319 | 2.6 | 7.0 | 0.00 | 0.00 | 0.00 | 28 | 1005.4 |
| 20260504202615 | 76 | 38 | 2.6 | 4.3 | 0.00 | 0.00 | 0.00 | 28 | 1005.4 |
| 20260504201622 | 75 | 79 | 2.6 | 7.0 | 0.00 | 0.00 | 0.00 | 26 | 1005.6 |
| 20260504200630 | 74 | 334 | 1.7 | 4.3 | 0.00 | 0.00 | 0.00 | 29 | 1005.7 |
| 20260504195632 | 74 | 285 | 2.6 | 4.3 | 0.00 | 0.00 | 0.00 | 31 | 1005.8 |
| 20260504194624 | 74 | 45 | 3.5 | 7.0 | 0.00 | 0.00 | 0.00 | 29 | 1005.9 |
| 20260504193613 | 74 | 296 | 2.6 | 8.7 | 0.00 | 0.00 | 0.00 | 31 | 1006.1 |
| 20260504192622 | 73 | 279 | 0.9 | 3.5 | 0.00 | 0.00 | 0.00 | 30 | 1006.2 |
| 20260504191630 | 73 | 346 | 2.6 | 7.0 | 0.00 | 0.00 | 0.00 | 31 | 1006.3 |
| 20260504190622 | 73 | 259 | 2.6 | 5.2 | 0.00 | 0.00 | 0.00 | 30 | 1006.5 |
| 20260504185621 | 72 | 327 | 1.7 | 5.2 | 0.00 | 0.00 | 0.00 | 32 | 1006.7 |
| 20260504184629 | 72 | 49 | 2.6 | 3.5 | 0.00 | 0.00 | 0.00 | 29 | 1006.8 |
| 20260504183636 | 72 | 38 | 2.6 | 5.2 | 0.00 | 0.00 | 0.00 | 30 | 1007.0 |
| 20260504182626 | 71 | 209 | 0.9 | 3.5 | 0.00 | 0.00 | 0.00 | 31 | 1007.1 |
| 20260504181613 | 71 | 350 | 1.7 | 3.5 | 0.00 | 0.00 | 0.00 | 32 | 1007.3 |
| 20260504180612 | 69 | 136 | 0.9 | 4.3 | 0.00 | 0.00 | 0.00 | 34 | 1007.5 |
| 20260504175651 | 68 | 57 | 0.9 | 3.5 | 0.00 | 0.00 | 0.00 | 34 | 1007.6 |
| 20260504174620 | 67 | 42 | 0.9 | 4.3 | 0.00 | 0.00 | 0.00 | 36 | 1007.8 |
| 20260504173614 | 66 | 51 | 2.6 | 5.2 | 0.00 | 0.00 | 0.00 | 37 | 1007.9 |
| 20260504172625 | 65 | 32 | 0.9 | 4.3 | 0.00 | 0.00 | 0.00 | 40 | 1007.9 |
| 20260504171636 | 65 | 17 | 1.7 | 5.2 | 0.00 | 0.00 | 0.00 | 41 | 1007.9 |
| 20260504170625 | 64 | 27 | 0.0 | 5.2 | 0.00 | 0.00 | 0.00 | 41 | 1008.0 |